Powrót do katalogu

AAC-IO1

AktywnyNaukaSSO
NORAD 68498·PAYLOAD·🇬🇧 United Kingdom

Wystrzelony Mar 30, 2026 z Vandenberg Space Force Base

Loading…

Następne Przeloty (najbliższe 24 godziny)

TLE

ŚwieżeSource: Space-Track

Epoka: Sep 14, 2026, 08:22 UTC

1 68498U 26067CL  26257.34882557  .00001182  00000-0  12235-3 0  9998
2 68498  97.7676 214.1065 0003763 107.2960 252.8671 14.91927467 25011

Śledź AAC-IO1 w czasie rzeczywistym z AllMySat

Download on the App Store